[[{"header":{"parameterUnit":"m.s-1","parameterCategory":1,"la1":30.2991,"la2":30.254,"lo1":-89.0895,"lo2":-89.0444,"dy":0.0017,"dx":0.0017,"nx":28,"ny":28,"refTime":"2023-09-30T21:00:00:Z","depth":0,"parameterNumber":2,"parameterNumberName":"U-component_of_WINDS"},"data":[0,0,0,0,0,0,0,0,0,0,0,0,0,0,0,0,0,0,0,0,0,0,0,0,0,0,0,0,0,0,0,0,0,0,0,0,0,0,0,0,0,0,0,0,0,0,0,0,0,0,0,0,0,0,0,0,0,0,-3.8218,-3.8219,0,-3.8232,-3.8233,-3.8233,-3.8088,-3.8084,-3.808,-3.8076,-3.8091,-3.8095,-3.8099,0,0,0,0,0,0,0,0,0,0,0,0,0,-3.8067,-3.807,-3.8218,-3.8219,-3.8219,-3.8232,-3.8233,-3.8233,-3.8088,-3.8083,-3.8079,-3.8074,-3.8089,-3.8094,-3.8099,0,0,0,0,0,0,0,0,0,0,0,0,0,-3.8112,-3.8072,-3.8218,-3.8148,-3.8142,-3.8232,-3.8233,-3.8233,-3.8089,-3.8083,-3.8077,-3.8072,-3.8088,-3.8094,-3.81,-3.8258,0,0,-3.8119,-3.8121,0,0,0,0,0,0,0,0,-3.811,-3.8118,-3.8158,-3.8153,-3.8147,-3.8152,-3.8184,-3.8241,-3.8091,-3.811,-3.8076,-3.8069,-3.8116,-3.8119,-3.8135,-3.8259,-3.8259,-3.8119,-3.8123,-3.8126,-3.8127,0,0,0,0,0,0,0,-3.8107,-3.8116,-3.8224,-3.8159,-3.8152,-3.8116,-3.8116,-3.8195,-3.8146,-3.8107,-3.8097,-3.81,-3.8112,-3.813,-3.8135,-3.8259,-3.8119,-3.8125,-3.8128,-3.8131,-3.8514,-3.8521,0,0,0,0,0,0,-3.8113,-3.8115,-3.8223,-3.8224,-3.8113,-3.8124,-3.8124,-3.8156,-3.8145,-3.8137,-3.8106,-3.8094,-3.8122,-3.8127,-3.8135,-3.832,-3.8126,-3.8131,-3.8135,-3.8508,-3.8516,-3.8523,0,0,0,0,0,0,-3.811,-3.8124,-3.8223,-3.8167,-3.8177,-3.8133,-3.8171,-3.816,-3.8178,-3.8144,-3.8134,-3.8133,-3.8118,-3.8126,-3.8229,-3.8318,-3.8134,-3.814,-3.85,-3.851,-3.8519,-3.8692,0,0,0,0,0,0,-3.8107,-3.8124,-3.8184,-3.8169,-3.818,-3.8317,-3.8176,-3.8164,-3.8189,-3.8173,-3.8167,-3.816,-3.8113,-3.822,-3.8235,-3.8324,-3.8145,-3.8492,-3.8505,-3.8516,-3.8678,-3.8707,-3.8731,0,0,0,0,0,-3.8102,-3.8232,-3.8187,-3.8201,-3.8254,-3.8323,-3.8329,-3.8273,-3.8197,-3.8256,-3.8234,-3.816,-3.8306,-3.8232,-3.8247,-3.8339,-3.8486,-3.8501,-3.8515,-3.8666,-3.8701,-3.873,0,0,0,0,0,0,-3.8258,-3.8228,-3.8179,-3.8308,-3.8319,-3.8298,-3.8372,-3.8311,-3.8344,-3.8328,-3.8256,-3.8256,-3.8371,-3.8365,-3.8283,-3.8492,-3.8383,-3.8401,-3.8493,-3.8525,-3.8551,-3.8551,-3.815,0,0,0,0,0,-3.8307,-3.8366,-3.8336,-3.8453,-3.8461,-3.8416,-3.8444,-3.84,-3.8408,-3.8412,-3.8397,-3.8409,-3.8457,-3.849,-3.8532,-3.8676,-3.8673,-3.8747,-3.8773,-3.8795,-3.8812,-3.8889,-3.8922,-3.8571,-3.8571,-3.857,0,0,-3.841,-3.8401,-3.8442,-3.8484,-3.8487,-3.855,-3.8421,-3.8492,-3.8538,-3.8422,-3.8519,-3.8509,-3.8517,-3.8641,-3.8695,-3.864,-3.8909,-3.8814,-3.8831,-3.8837,-3.8908,-3.8941,-3.8971,-3.8581,-3.8579,-3.8577,0,0,-3.8629,-3.8628,-3.8726,-3.8732,-3.8738,-3.8707,-3.8731,-3.8719,-3.8708,-3.8804,-3.8719,-3.8773,-3.8857,-3.8867,-3.8883,-3.9106,-3.904,-3.9122,-3.926,-3.9336,-3.9364,-3.9388,-3.9469,-3.9499,-3.9139,-3.9139,-3.914,0,-3.8756,-3.8847,-3.8783,-3.8861,-3.8882,-3.8781,-3.888,-3.8888,-3.8909,-3.8926,-3.8863,-3.8968,-3.8966,-3.9092,-3.9147,-3.9162,-3.9188,-3.9123,-3.9365,-3.9388,-3.941,-3.9487,-3.9518,-3.9149,-3.9148,-3.9147,-3.9146,0,-3.9003,-3.9068,-3.9146,-3.9168,-3.9198,-3.9286,-3.9236,-3.9274,-3.9228,-3.9204,-3.9303,-3.9297,-3.9337,-3.9363,-3.9318,-3.9484,-3.9449,-3.9377,-3.9266,-3.9455,-3.9526,-3.9555,-3.9164,-3.916,-3.9157,-3.9155,0,0,-3.9322,-3.9309,-3.9339,-3.9348,-3.9348,-3.9397,-3.948,-3.9519,-3.9554,-3.9572,-3.9641,-3.9715,-3.9648,-3.9666,-3.9621,-3.9688,-3.9867,-3.9607,-3.9606,-3.9657,-4.0051,-4.0107,-4.0142,-3.9822,-3.9828,-3.9832,-4.0051,0,-3.9537,-3.9679,-3.9625,-3.9771,-3.983,-3.9735,-3.9807,-3.9816,-3.9796,-3.9843,-3.982,-3.9875,-3.9781,-3.9792,-3.9853,-3.9833,-3.9946,-3.9816,-3.9887,-3.9891,-3.989,-4.0179,-4.0238,-4.0445,-4.0078,-4.0083,-4.0086,0,-3.9807,-3.9836,-3.9989,-3.9979,-4.0002,-4.0069,-4.0101,-4.0147,-4.0154,-4.0135,-4.0156,-4.0097,-4.0178,-4.0067,-4.0179,-4.0092,-4.0118,-4.0112,-4.0119,-4.0124,-4.0001,-4.0194,-4.0509,-4.0541,-4.0129,-4.0125,-4.0122,0,-4.0027,-4.0104,-4.0205,-4.0216,-4.0207,-4.0256,-4.0255,-4.0256,-4.0284,-4.0312,-4.0329,-4.0366,-4.0387,-4.0418,-4.0371,-4.0293,-4.049,-4.0374,-4.0478,-4.048,-4.0525,-4.0523,-4.085,-4.0539,-4.0539,-4.0538,-4.0538,0,-4.0274,-4.0371,-4.0304,-4.0367,-4.0473,-4.0409,-4.0517,-4.0505,-4.0507,-4.0566,-4.0485,-4.0542,-4.0475,-4.0527,-4.049,-4.059,-4.0599,-4.0587,-4.0576,-4.0595,-4.0597,-4.0612,-4.0597,-4.0546,-4.0545,-4.0543,-4.0542,0,-4.0538,-4.0496,-4.0601,-4.0584,-4.0582,-4.0661,-4.0647,-4.0705,-4.0678,-4.0754,-4.0768,-4.0728,-4.0784,-4.0739,-4.0794,-4.0769,-4.0902,-4.087,-4.09,-4.0892,-4.0998,-4.099,-4.1348,-4.1393,-4.1052,-4.1055,-4.1058,0,-4.0699,-4.0771,-4.0763,-4.0796,-4.08,-4.0855,-4.0883,-4.0823,-4.0855,-4.087,-4.0927,-4.0975,-4.1012,-4.1106,-4.1082,-4.1124,-4.1093,-4.1216,-4.1099,-4.1116,-4.1097,-4.1094,-4.1102,-4.124,-4.1244,-4.1248,-4.125,0,-4.099,-4.0966,-4.1008,-4.1045,-4.1081,-4.1107,-4.1126,-4.1158,-4.1097,-4.1138,-4.1194,-4.1222,-4.1278,-4.1329,-4.1362,-4.1361,-4.1297,-4.1287,-4.1313,-4.1334,-4.135,-4.1345,-4.0966,-4.1279,-4.1276,-4.1274,-4.1273,-4.1272,-4.1208,-4.1269,-4.1272,-4.1323,-4.1331,-4.1352,-4.1405,-4.1386,-4.1432,-4.1473,-4.1435,-4.1504,-4.151,-4.1548,-4.1555,-4.1608,-4.1557,-4.1595,-4.1605,-4.1616,-4.1632,-4.134,-4.1614,-4.1613,-4.1612,-4.1611,-4.1611,0,-4.1496,-4.1494,-4.1541,-4.1571,-4.1612,-4.1546,-4.1565,-4.1603,-4.1664,-4.1675,-4.1713,-4.1779,-4.1827,-4.1807,-4.185,-4.1897,-4.1868,-4.191,-4.1907,-4.1908,-4.1674,-4.1648,-4.1932,-4.1932,-4.1932,-4.1932,-4.1932,-4.1932,-4.1651,-4.1751,-4.1728,-4.1831,-4.1827,-4.1894,-4.191,-4.1929,-4.1938,-4.2015,-4.2055,-4.2041,-4.204,-4.2082,-4.2124,-4.2117,-4.2138,-4.2191,-4.2174,-4.1956,-4.1924,-4.1894,-4.1869,-4.2195,-4.2196,-4.2403,-4.2405,-4.2406]},{"header":{"parameterUnit":"m.s-1","parameterCategory":1,"la1":30.2991,"la2":30.254,"lo1":-89.0895,"lo2":-89.0444,"dy":0.0017,"dx":0.0017,"nx":28,"ny":28,"refTime":"2023-09-30T21:00:00:Z","depth":0,"parameterNumber":3,"parameterNumberName":"V-component_of_WINDS"},"data":[0,0,0,0,0,0,0,0,0,0,0,0,0,0,0,0,0,0,0,0,0,0,0,0,0,0,0,0,0,0,0,0,0,0,0,0,0,0,0,0,0,0,0,0,0,0,0,0,0,0,0,0,0,0,0,0,0,0,1.3564,1.3563,0,1.3515,1.3514,1.3513,1.3481,1.3481,1.3481,1.3481,1.3425,1.3424,1.3423,0,0,0,0,0,0,0,0,0,0,0,0,0,1.3626,1.3625,1.3564,1.3563,1.3562,1.3515,1.3514,1.3513,1.3481,1.3481,1.3481,1.3481,1.3426,1.3424,1.3423,0,0,0,0,0,0,0,0,0,0,0,0,0,1.359,1.3625,1.3564,1.3541,1.3538,1.3515,1.3514,1.3513,1.3481,1.3481,1.3481,1.3481,1.3426,1.3424,1.3423,1.3416,0,0,1.3417,1.3416,0,0,0,0,0,0,0,0,1.3592,1.3588,1.3545,1.3542,1.3539,1.3504,1.3516,1.348,1.3482,1.3503,1.3481,1.348,1.3451,1.3447,1.3439,1.3414,1.3411,1.3416,1.3415,1.3414,1.3414,0,0,0,0,0,0,0,1.3595,1.359,1.3544,1.3544,1.3541,1.3532,1.3526,1.3509,1.3479,1.3501,1.3499,1.3493,1.345,1.3441,1.3437,1.3411,1.3416,1.3415,1.3414,1.3413,1.3379,1.3379,0,0,0,0,0,0,1.3601,1.3592,1.3546,1.3543,1.3566,1.3531,1.3525,1.3516,1.3479,1.3474,1.3494,1.3492,1.3444,1.3439,1.3435,1.3426,1.3414,1.3413,1.3411,1.3379,1.3379,1.3379,0,0,0,0,0,0,1.3603,1.3597,1.3548,1.3567,1.356,1.353,1.352,1.3515,1.3505,1.3474,1.3468,1.349,1.3444,1.3438,1.3422,1.3423,1.3412,1.341,1.3378,1.3379,1.3379,1.3407,0,0,0,0,0,0,1.3605,1.3598,1.3596,1.3567,1.3559,1.3536,1.352,1.3514,1.3503,1.35,1.3469,1.3463,1.3443,1.3425,1.342,1.342,1.3408,1.3378,1.3379,1.3379,1.3405,1.3408,1.341,0,0,0,0,0,1.3607,1.3604,1.3596,1.3591,1.3556,1.3536,1.3531,1.351,1.3503,1.35,1.348,1.3464,1.3425,1.3424,1.3418,1.3417,1.3378,1.3378,1.3379,1.3404,1.3408,1.341,0,0,0,0,0,0,1.3632,1.36,1.359,1.3579,1.3561,1.3531,1.3527,1.3513,1.3495,1.3494,1.3466,1.3459,1.3446,1.343,1.343,1.341,1.3399,1.3399,1.3421,1.3423,1.3426,1.3429,1.3407,0,0,0,0,0,1.3637,1.3625,1.3597,1.3589,1.3581,1.3556,1.3546,1.3532,1.3511,1.3503,1.3481,1.3461,1.3444,1.3433,1.3415,1.3404,1.3396,1.3401,1.3403,1.3405,1.3405,1.3398,1.3399,1.3381,1.3381,1.3381,0,0,1.3645,1.3627,1.362,1.3594,1.3578,1.3566,1.3549,1.3536,1.3526,1.35,1.3484,1.3468,1.3443,1.343,1.3423,1.3416,1.3409,1.3406,1.3408,1.3406,1.3399,1.34,1.3402,1.3382,1.3382,1.3382,0,0,1.3654,1.3639,1.3632,1.3617,1.3595,1.3578,1.3577,1.3549,1.3538,1.3522,1.3503,1.349,1.3461,1.3445,1.3432,1.3438,1.3422,1.3433,1.3445,1.3438,1.344,1.3441,1.3442,1.3443,1.3433,1.3433,1.3433,0,1.3667,1.3649,1.3629,1.3618,1.3607,1.3585,1.3577,1.3563,1.3535,1.3527,1.3522,1.3486,1.3468,1.345,1.3452,1.3443,1.344,1.3436,1.3442,1.3442,1.3443,1.3444,1.3445,1.3435,1.3434,1.3434,1.3434,0,1.3666,1.3654,1.365,1.3626,1.3615,1.3605,1.3583,1.3573,1.356,1.3544,1.3529,1.3507,1.3485,1.348,1.3466,1.3461,1.3458,1.3447,1.3435,1.3447,1.3447,1.3447,1.3437,1.3436,1.3436,1.3435,0,0,1.3687,1.3655,1.3653,1.3643,1.3617,1.3607,1.3596,1.3577,1.357,1.3552,1.3541,1.3519,1.351,1.3496,1.348,1.3475,1.3481,1.3465,1.3464,1.3468,1.3474,1.3481,1.3482,1.3471,1.3471,1.3471,1.3475,0,1.3692,1.3673,1.3656,1.3643,1.3631,1.3612,1.3603,1.3586,1.3571,1.3558,1.3541,1.3526,1.3515,1.3506,1.3501,1.3481,1.3481,1.3481,1.346,1.346,1.3466,1.3482,1.3489,1.3494,1.3476,1.3476,1.3476,0,1.3694,1.368,1.3666,1.3644,1.3638,1.363,1.3612,1.36,1.358,1.357,1.3556,1.3541,1.3528,1.3519,1.3501,1.3501,1.3492,1.3481,1.3481,1.3477,1.3467,1.3477,1.3495,1.3496,1.3476,1.3476,1.3476,0,1.371,1.3687,1.3677,1.3668,1.3641,1.3636,1.3625,1.3605,1.3595,1.3579,1.3572,1.3554,1.3543,1.3529,1.3509,1.3504,1.3492,1.3482,1.3482,1.3483,1.3479,1.3479,1.3494,1.3475,1.3475,1.3475,1.3475,0,1.3717,1.3709,1.3684,1.3677,1.3668,1.3648,1.3639,1.3626,1.3609,1.3599,1.3581,1.3571,1.3545,1.3532,1.3516,1.3503,1.3499,1.3489,1.3485,1.349,1.3491,1.3482,1.3481,1.3476,1.3476,1.3475,1.3475,0,1.3732,1.3715,1.3702,1.3679,1.3673,1.3668,1.3647,1.3639,1.3625,1.3612,1.3608,1.3584,1.3568,1.3547,1.3524,1.3513,1.3502,1.3496,1.3509,1.3506,1.3508,1.3507,1.3516,1.3516,1.3499,1.3499,1.3499,0,1.3737,1.3731,1.3708,1.3701,1.3691,1.3679,1.3669,1.365,1.364,1.3619,1.3614,1.3597,1.3582,1.3558,1.3537,1.352,1.3512,1.3517,1.3509,1.3515,1.3511,1.3511,1.351,1.3518,1.3518,1.3518,1.3519,0,1.3747,1.3739,1.3727,1.3712,1.3702,1.3689,1.3675,1.3669,1.3647,1.3637,1.3622,1.3611,1.3589,1.3572,1.3552,1.3538,1.3524,1.3522,1.3521,1.3525,1.3533,1.3528,1.3513,1.3521,1.3521,1.3521,1.352,1.352,1.3756,1.3751,1.3734,1.3721,1.3709,1.3697,1.3689,1.3675,1.3662,1.3644,1.3633,1.3618,1.3599,1.3572,1.3559,1.3547,1.3541,1.354,1.3539,1.3539,1.354,1.3537,1.3543,1.3543,1.3543,1.3543,1.3543,0,1.3765,1.3754,1.3743,1.3725,1.3715,1.3705,1.369,1.3681,1.3669,1.3654,1.3641,1.3623,1.3607,1.3587,1.357,1.3563,1.3557,1.3559,1.3559,1.3556,1.3546,1.3549,1.3565,1.3565,1.3565,1.3565,1.3565,1.3565,1.3768,1.3758,1.3749,1.3732,1.3721,1.3707,1.3699,1.3688,1.3676,1.3658,1.3645,1.3633,1.3616,1.3597,1.3582,1.3577,1.357,1.3575,1.3567,1.3558,1.3556,1.3554,1.3556,1.3574,1.3574,1.3578,1.3578,1.3578]}]]